Waarnemingen

Advertentie
Mijn weer
Bergamo/Orio al Serio, Italië (16076): temperatuur & dauwpunt: 19.06.2018 01:00:00 - 25.06.2018 01:00:00 (CEST)Bergamo/Orio al Serio, Italië (16076): windsnelheid: 19.06.2018 01:00:00 - 25.06.2018 01:00:00 (CEST)Bergamo/Orio al Serio, Italië (16076): windrichting: 19.06.2018 01:00:00 - 25.06.2018 01:00:00 (CEST)Bergamo/Orio al Serio, Italië (16076): luchtdruk: 19.06.2018 01:00:00 - 25.06.2018 01:00:00 (CEST)Bergamo/Orio al Serio, Italië (16076): zicht: 19.06.2018 01:00:00 - 25.06.2018 01:00:00 (CEST)
Datum & Tijd tt [°C] td [°C] ff [km/u] ff [kn] dd ppp [hPa] vv [km]
25.06.2018 01:00:00 19,0 13,0 5 3 NO - 10
25.06.2018 00:00:00 19,0 13,0 8 4 N - 10
24.06.2018 23:00:00 19,7 12,6 8 4 NNO 1016,2 10
24.06.2018 22:00:00 22,0 10,0 4 2 - - 10
24.06.2018 21:00:00 23,0 10,0 8 4 ZZO - 10
24.06.2018 20:00:00 23,1 8,8 9 5 ZZO 1015,2 10
24.06.2018 19:00:00 24,0 9,0 8 4 Z - 10
24.06.2018 18:00:00 24,0 9,0 11 6 Z - 10
24.06.2018 17:00:00 24,3 9,5 5 3 - 1015,4 10
24.06.2018 16:00:00 25,0 9,0 8 4 Z - 10
24.06.2018 15:00:00 25,0 10,0 9 5 - - 10
24.06.2018 14:00:00 23,6 10,1 8 4 ZZO 1016,9 10
24.06.2018 13:00:00 23,0 9,0 9 5 ZO - 10
24.06.2018 12:00:00 23,0 7,0 13 7 Z - 10
24.06.2018 11:00:00 22,5 7,3 11 6 Z 1018,2 10
24.06.2018 10:00:00 22,0 6,0 13 7 ZO - 10
24.06.2018 09:00:00 21,0 10,0 11 6 O - 10
24.06.2018 08:00:00 19,1 10,6 8 4 NNO 1018,9 10
24.06.2018 07:00:00 16,0 11,0 9 5 NO - 10
24.06.2018 06:00:00 15,0 10,0 13 7 NO - 10
24.06.2018 05:00:00 15,0 10,7 11 6 NNO 1018,7 10
24.06.2018 04:00:00 16,0 11,0 9 5 N - 10
24.06.2018 03:00:00 16,0 11,0 11 6 N - 10
24.06.2018 02:00:00 16,6 11,4 5 3 NNO 1019,7 10
24.06.2018 01:00:00 18,0 11,0 5 3 O - 10
24.06.2018 00:00:00 18,0 12,0 11 6 NO - 10
23.06.2018 23:00:00 19,1 11,9 8 4 N 1018,9 10
23.06.2018 22:00:00 20,0 11,0 4 2 - - 10
23.06.2018 21:00:00 22,0 10,0 9 5 ZZO - 10
23.06.2018 20:00:00 23,0 10,0 11 6 ZZO 1016,7 10
23.06.2018 19:00:00 24,0 11,0 9 5 ZZW - 10
23.06.2018 18:00:00 24,0 10,0 13 7 Z - 10
23.06.2018 17:00:00 24,3 9,3 8 4 ZZO 1017,4 10
23.06.2018 16:00:00 24,0 10,0 9 5 Z - 10
23.06.2018 15:00:00 23,0 11,0 13 7 ZZO - 10
23.06.2018 14:00:00 23,5 11,8 9 5 - 1019,4 10
23.06.2018 13:00:00 22,0 10,0 9 5 Z - 10
23.06.2018 12:00:00 22,0 13,0 13 7 ZZO - 10
23.06.2018 11:00:00 21,2 13,7 13 7 ZZO 1021,2 10
23.06.2018 10:00:00 19,0 13,0 9 5 ZZW - 10
23.06.2018 09:00:00 20,0 13,0 5 3 W - 10
23.06.2018 08:00:00 18,7 13,4 5 3 WNW 1021,3 10
23.06.2018 07:00:00 18,0 13,0 5 3 WNW - 10
23.06.2018 06:00:00 18,0 14,0 5 3 W - 10
23.06.2018 05:00:00 17,8 13,1 5 3 ZW 1020,4 10
23.06.2018 04:00:00 18,0 14,0 4 2 - - 10
23.06.2018 03:00:00 18,0 14,0 4 2 - - 10
23.06.2018 02:00:00 18,3 13,7 9 5 OZO 1020,1 10
23.06.2018 01:00:00 19,0 14,0 13 7 ZO - 10
23.06.2018 00:00:00 18,0 14,0 11 6 OZO - 10
22.06.2018 23:00:00 19,4 13,5 16 9 ZO 1018,3 10
22.06.2018 22:00:00 20,0 14,0 21 11 ZO - 10
22.06.2018 21:00:00 21,0 15,0 22 12 ZO - 10
22.06.2018 20:00:00 22,4 14,6 16 9 ZZO 1014,8 10
22.06.2018 19:00:00 24,0 16,0 24 13 ZO - 10
22.06.2018 18:00:00 25,0 17,0 26 14 ZO - 10
22.06.2018 17:00:00 25,2 16,1 26 14 ZO 1012,7 10
22.06.2018 16:00:00 26,0 17,0 24 13 ZO - 10
22.06.2018 15:00:00 26,0 18,0 21 11 ZO - 10
22.06.2018 14:00:00 24,7 18,3 18 10 ZZO 1013,0 9
22.06.2018 13:00:00 25,0 19,0 21 11 ZO - 9
22.06.2018 12:00:00 25,0 19,0 21 11 ZO - 8
22.06.2018 11:00:00 24,6 19,3 29 16 OZO 1012,0 10
22.06.2018 10:00:00 25,0 18,0 22 12 OZO - 10
22.06.2018 09:00:00 24,0 18,0 13 7 OZO - 10
22.06.2018 08:00:00 23,3 17,7 4 2 - 1010,5 10
22.06.2018 07:00:00 21,0 18,0 5 3 N - 10
22.06.2018 06:00:00 21,0 18,0 5 3 NNW - 10
22.06.2018 05:00:00 20,7 17,6 5 3 N 1010,4 10
22.06.2018 04:00:00 21,0 18,0 8 4 N - 10
22.06.2018 03:00:00 22,0 18,0 5 3 NNW - 10
22.06.2018 02:00:00 21,6 18,3 8 4 N 1011,6 10
22.06.2018 01:00:00 23,0 18,0 5 3 N - 10
22.06.2018 00:00:00 23,0 19,0 8 4 N - 10
21.06.2018 23:00:00 24,5 15,8 11 6 NNW 1012,2 10
21.06.2018 22:00:00 25,0 18,0 9 5 N - 10
21.06.2018 21:00:00 26,0 18,0 9 5 NNO - 10
21.06.2018 20:00:00 27,3 18,5 11 6 N 1010,9 10
21.06.2018 19:00:00 30,0 17,0 15 8 WZW - 10
21.06.2018 18:00:00 30,0 18,0 15 8 ZZW - 10
21.06.2018 17:00:00 30,6 17,4 15 8 ZZW 1011,5 10
21.06.2018 16:00:00 29,0 17,0 15 8 ZW - 10
21.06.2018 15:00:00 29,0 18,0 16 9 W - 10
21.06.2018 14:00:00 29,6 17,3 13 7 W 1013,9 10
21.06.2018 13:00:00 28,0 17,0 16 9 WZW - 10
21.06.2018 12:00:00 28,0 18,0 8 4 - - 10
21.06.2018 11:00:00 27,2 16,7 8 4 ZW 1015,8 10
21.06.2018 10:00:00 26,0 17,0 9 5 ZZW - 10
21.06.2018 09:00:00 25,0 17,0 4 2 - - 10
21.06.2018 08:00:00 23,6 16,8 8 4 NNO 1017,0 10
21.06.2018 07:00:00 22,0 16,0 9 5 NNO - 10
21.06.2018 06:00:00 20,0 16,0 9 5 NNO - 10
21.06.2018 05:00:00 20,6 16,4 8 4 NNO 1017,5 10
21.06.2018 04:00:00 21,0 17,0 5 3 NNO - 10
21.06.2018 03:00:00 21,0 17,0 8 4 NNO - 10
21.06.2018 02:00:00 21,9 16,5 9 5 NNO 1018,6 10
21.06.2018 01:00:00 23,0 17,0 9 5 NNO - 10
21.06.2018 00:00:00 23,0 17,0 9 5 NNO - 10
20.06.2018 23:00:00 23,5 17,1 9 5 NNO 1019,2 10
20.06.2018 22:00:00 25,0 17,0 8 4 NNO - 10
20.06.2018 21:00:00 27,0 16,0 9 5 ZZW - 10
20.06.2018 20:00:00 27,5 14,9 9 5 Z 1017,6 10
20.06.2018 19:00:00 29,0 15,0 8 4 Z - 10
20.06.2018 18:00:00 29,0 16,0 5 3 OZO - 10
20.06.2018 17:00:00 29,0 14,9 9 5 - 1018,5 10
20.06.2018 16:00:00 29,0 14,0 5 3 O - 10
20.06.2018 15:00:00 28,0 16,0 5 3 - - 10
20.06.2018 14:00:00 28,4 12,9 9 5 Z 1020,1 10
20.06.2018 13:00:00 28,0 16,0 9 5 - - 10
20.06.2018 12:00:00 27,0 16,0 9 5 ZZO - 10
20.06.2018 11:00:00 26,7 16,6 9 5 ZZO 1021,2 10
20.06.2018 10:00:00 25,0 18,0 4 2 - - 10
20.06.2018 09:00:00 23,0 17,0 8 4 NNO - 10
20.06.2018 08:00:00 23,2 17,0 5 3 N 1021,1 10
20.06.2018 07:00:00 22,0 17,0 5 3 NO - 10
20.06.2018 06:00:00 22,0 16,0 8 4 NNO - 10
20.06.2018 05:00:00 21,7 15,7 4 2 - 1020,5 10
20.06.2018 04:00:00 22,0 16,0 11 6 NNO - 10
20.06.2018 03:00:00 22,0 16,0 11 6 N - 10
20.06.2018 02:00:00 22,9 16,3 8 4 N 1021,0 10
20.06.2018 01:00:00 23,0 16,0 9 5 NNO - 10
20.06.2018 00:00:00 24,0 17,0 9 5 NNO - 10
19.06.2018 23:00:00 24,4 16,5 8 4 NO 1019,9 10
19.06.2018 22:00:00 24,0 17,0 8 4 NNO - 10
19.06.2018 21:00:00 25,0 15,0 5 3 ZO - 10
19.06.2018 20:00:00 27,4 13,4 5 3 ZO 1017,9 10
19.06.2018 19:00:00 28,0 15,0 8 4 Z - 8
19.06.2018 18:00:00 28,0 15,0 11 6 Z - 8
19.06.2018 17:00:00 28,2 16,9 11 6 ZZO 1018,2 10
19.06.2018 16:00:00 28,0 16,0 8 4 - - 10
19.06.2018 15:00:00 28,0 15,0 11 6 ZO - 10
19.06.2018 14:00:00 28,5 15,2 8 4 - 1019,4 10
19.06.2018 13:00:00 28,0 15,0 9 5 ZZO - 10
19.06.2018 12:00:00 27,0 15,0 11 6 Z - 10
19.06.2018 11:00:00 26,6 13,7 9 5 Z 1020,2 10
19.06.2018 10:00:00 26,0 16,0 8 4 O - 10
19.06.2018 09:00:00 26,0 17,0 2 1 - - 10
19.06.2018 08:00:00 22,8 16,3 8 4 N 1020,1 10
19.06.2018 07:00:00 21,0 15,0 9 5 NNO - 10
19.06.2018 06:00:00 20,0 15,0 11 6 NNO - 10
19.06.2018 05:00:00 19,8 15,4 9 5 N 1019,4 15
19.06.2018 04:00:00 20,0 16,0 11 6 NNO - 10
19.06.2018 03:00:00 21,0 16,0 11 6 NO - 10
19.06.2018 02:00:00 21,2 15,8 16 9 NNO 1018,7 15
19.06.2018 01:00:00 21,0 16,0 9 5 NNO - 10

tt = temperatuur
td = dauwpunt
ff = windsnelheid
dd = windrichting
ppp = luchtdruk
vv = zicht

Weerstations in de omgeving